Regional Weather Roundup
Issued by NWS

Home | Current Version | Previous Version | Graphics & Text | Print | Product List | Glossary On
Versions: 1 2 3 4 5 6 7 8 9 10 11 12 13 14 15 16 17 18 19 20 21 22 23 24 25 26 27 28 29 30 31 32 33 34 35 36 37 38 39 40 41 42 43 44 45 46 47 48 49 50
194
ASUS43 KLMK 211902
RWRKY
KENTUCKY REGIONAL WEATHER ROUNDUP
NATIONAL WEATHER SERVICE LOUISVILLE KY
300 PM EDT THU SEP 21 2017

NOTE "FAIR" INDICATES FEW OR NO CLOUDS BELOW 12,000 FEET
WITH NO SIGNIFICANT WEATHER AND/OR OBSTRUCTIONS TO VISIBILITY.

KYZ001>023-026-027-061>063-070>075-212000-
WESTERN AND SOUTH CENTRAL KENTUCKY

CITY           SKY/WX    TMP DP  RH WIND       PRES   REMARKS
PADUCAH        MOSUNNY   92  68  45 S6        30.02F HX  96
HENDERSON      MOSUNNY   88  71  57 NE3       30.04F HX  94
OWENSBORO      SUNNY     93  70  46 S6        30.05F HX  99
HOPKINSVILLE   MOSUNNY   89  72  57 S5        30.04F HX  95
BOWLING GREEN  MOSUNNY   89  70  53 E8        30.05F HX  94
GLASGOW        MOSUNNY   86  68  54 NE6       30.07F
$$

KYZ024-025-028>034-038-045-046-053-212000-
NORTH CENTRAL KENTUCKY

CITY           SKY/WX    TMP DP  RH WIND       PRES   REMARKS
LOUISVILLE/SDF PTSUNNY   90  67  46 VRB6      30.05F HX  93
LOUISVILLE/LOU SUNNY     89  71  55 CALM      30.06F HX  95
FORT KNOX      MOSUNNY   87  69  55 CALM      30.06F HX  91
$$

KYZ035>037-039>044-047>052-055>060-089>105-212000-
NORTHEAST KENTUCKY

CITY           SKY/WX    TMP DP  RH WIND       PRES   REMARKS
LEXINGTON      SUNNY     86  70  58 N6        30.09F HX  90
COVINGTON      MOSUNNY   87  71  58 CALM      30.08F HX  93
FRANKFORT      PTSUNNY   89  67  47 CALM      30.07F HX  92
$$

KYZ054-064>069-076>088-106>120-212000-
SOUTHEAST KENTUCKY

CITY           SKY/WX    TMP DP  RH WIND       PRES   REMARKS
JACKSON        MOSUNNY   84  66  54 CALM      30.11F
LONDON         MOSUNNY   87  63  44 VRB7      30.10F
SOMERSET       MOSUNNY   84  64  51 E3        30.10F
MIDDLESBORO    PTSUNNY   83  66  56 CALM      30.09F
MONTICELLO     PTCLDY    87  69  54 N13G18    30.10F HX  91
$$





USA.gov is the U.S. government's official web portal to all federal, state and local government web resources and services.